TimeEDT,TemperatureF,Dew PointF,Humidity,Sea Level PressureIn,VisibilityMPH,Wind Direction,Wind SpeedMPH,Gust SpeedMPH,PrecipitationIn,Events,Conditions,WindDirDegrees,DateUTC
12:53 AM,72.0,63.0,73,29.89,10.0,SSW,21.9,-,N/A,,Clear,200,2013-08-08 04:53:00
1:44 AM,71.6,62.6,73,29.89,10.0,South,21.9,32.2,N/A,Thunderstorm,Mostly Cloudy,190,2013-08-08 05:44:00
1:53 AM,72.0,63.0,73,29.88,10.0,South,21.9,33.4,0.00,Rain-Thunderstorm,Light Rain,190,2013-08-08 05:53:00
2:18 AM,69.8,64.4,83,29.92,3.0,NNW,17.3,33.4,0.10,Rain-Thunderstorm,Heavy Thunderstorms and Rain,330,2013-08-08 06:18:00
2:22 AM,69.8,64.4,83,29.93,1.8,NW,20.7,33.4,0.22,Rain-Thunderstorm,Heavy Thunderstorms and Rain,320,2013-08-08 06:22:00
2:26 AM,68.0,64.4,88,29.93,1.0,NW,16.1,28.8,0.48,Rain-Thunderstorm,Heavy Thunderstorms and Rain,320,2013-08-08 06:26:00
2:30 AM,66.2,64.4,94,29.93,0.8,NW,13.8,28.8,0.66,Rain-Thunderstorm,Heavy Thunderstorms and Rain,320,2013-08-08 06:30:00
2:36 AM,66.2,64.4,94,29.92,1.2,Variable,5.8,-,0.69,Rain-Thunderstorm,Thunderstorms and Rain,0,2013-08-08 06:36:00
2:39 AM,66.2,64.4,94,29.92,2.0,Variable,4.6,-,0.69,Rain-Thunderstorm,Light Thunderstorms and Rain,0,2013-08-08 06:39:00
2:43 AM,66.2,64.4,94,29.91,7.0,South,9.2,-,0.70,Rain-Thunderstorm,Light Thunderstorms and Rain,180,2013-08-08 06:43:00
2:53 AM,66.9,66.0,97,29.90,4.0,South,8.1,-,0.73,Rain-Thunderstorm,Thunderstorms and Rain,180,2013-08-08 06:53:00
3:02 AM,68.0,66.2,94,29.95,1.8,West,8.1,-,0.13,Rain-Thunderstorm,Heavy Rain,260,2013-08-08 07:02:00
3:06 AM,68.0,66.2,94,29.94,0.8,West,10.4,-,0.32,Rain-Thunderstorm,Heavy Rain,280,2013-08-08 07:06:00
3:27 AM,66.2,66.2,100,29.94,1.0,South,10.4,-,0.82,Rain-Thunderstorm,Heavy Rain,190,2013-08-08 07:27:00
3:31 AM,66.2,66.2,100,29.94,1.5,SSW,8.1,-,0.83,Rain-Thunderstorm,Heavy Rain,200,2013-08-08 07:31:00
3:36 AM,66.2,66.2,100,29.94,2.0,WNW,8.1,-,0.89,Rain-Thunderstorm,Heavy Rain,290,2013-08-08 07:36:00
3:42 AM,66.2,66.2,100,29.95,1.8,NW,5.8,-,0.94,Rain-Thunderstorm,Heavy Rain,310,2013-08-08 07:42:00
3:44 AM,66.2,66.2,100,29.95,2.0,WNW,9.2,-,0.98,Rain-Thunderstorm,Heavy Rain,300,2013-08-08 07:44:00
3:49 AM,66.2,66.2,100,29.95,1.8,Variable,5.8,-,1.01,Rain,Heavy Rain,0,2013-08-08 07:49:00
3:53 AM,66.9,66.0,97,29.94,2.0,Variable,3.5,-,1.06,Rain,Heavy Rain,0,2013-08-08 07:53:00
3:59 AM,66.2,66.2,100,29.94,3.0,Variable,4.6,-,0.00,Rain,Light Rain,0,2013-08-08 07:59:00
4:08 AM,66.2,66.2,100,29.94,9.0,Variable,4.6,-,0.00,Rain,Light Rain,0,2013-08-08 08:08:00
4:15 AM,66.2,66.2,100,29.94,10.0,Variable,3.5,-,0.00,Rain-Thunderstorm,Light Rain,0,2013-08-08 08:15:00
4:23 AM,66.2,66.2,100,29.94,10.0,South,10.4,-,0.00,,Overcast,190,2013-08-08 08:23:00
4:53 AM,66.9,66.0,97,29.93,10.0,South,12.7,-,0.01,Rain,Light Rain,190,2013-08-08 08:53:00
5:53 AM,68.0,66.0,93,29.94,10.0,South,10.4,-,0.00,,Overcast,190,2013-08-08 09:53:00
6:05 AM,68.0,66.2,94,29.95,10.0,SSW,9.2,-,N/A,,Overcast,200,2013-08-08 10:05:00
6:53 AM,68.0,66.9,96,29.94,10.0,SSW,8.1,-,N/A,,Overcast,210,2013-08-08 10:53:00
7:53 AM,70.0,68.0,93,29.94,10.0,SSW,8.1,-,N/A,,Scattered Clouds,200,2013-08-08 11:53:00
8:53 AM,73.0,69.1,87,29.95,10.0,SSW,10.4,16.1,N/A,,Mostly Cloudy,210,2013-08-08 12:53:00
9:53 AM,75.9,69.1,79,29.94,10.0,SSW,10.4,-,N/A,,Mostly Cloudy,210,2013-08-08 13:53:00
10:20 AM,77.0,69.8,78,29.96,10.0,SSW,12.7,16.1,N/A,,Mostly Cloudy,210,2013-08-08 14:20:00
10:53 AM,77.0,70.0,79,29.95,10.0,SSW,11.5,-,N/A,,Overcast,200,2013-08-08 14:53:00
11:53 AM,78.1,71.1,79,29.96,10.0,WNW,8.1,-,N/A,,Mostly Cloudy,290,2013-08-08 15:53:00
12:07 PM,77.0,71.6,83,29.97,10.0,WNW,9.2,-,N/A,,Overcast,300,2013-08-08 16:07:00
12:53 PM,75.0,71.1,87,29.96,10.0,WNW,9.2,-,N/A,,Mostly Cloudy,300,2013-08-08 16:53:00
1:49 PM,78.8,71.6,78,29.97,9.0,WNW,9.2,-,N/A,,Mostly Cloudy,300,2013-08-08 17:49:00
1:53 PM,78.1,71.1,79,29.96,9.0,NW,10.4,-,N/A,,Mostly Cloudy,310,2013-08-08 17:53:00
2:23 PM,77.0,69.8,78,29.96,8.0,WNW,10.4,-,N/A,,Mostly Cloudy,300,2013-08-08 18:23:00
2:34 PM,78.8,71.6,78,29.96,8.0,NW,8.1,-,N/A,,Partly Cloudy,310,2013-08-08 18:34:00
2:53 PM,78.1,70.0,76,29.95,8.0,NW,6.9,-,N/A,,Partly Cloudy,310,2013-08-08 18:53:00
3:53 PM,78.1,71.1,79,29.95,8.0,Variable,6.9,-,N/A,Thunderstorm,Scattered Clouds,0,2013-08-08 19:53:00
4:10 PM,75.2,69.8,83,29.94,8.0,NW,8.1,-,N/A,Thunderstorm,Mostly Cloudy,310,2013-08-08 20:10:00
4:31 PM,78.8,71.6,78,29.94,8.0,NW,5.8,-,N/A,,Scattered Clouds,310,2013-08-08 20:31:00
4:53 PM,78.1,70.0,76,29.93,8.0,WNW,10.4,-,N/A,,Clear,300,2013-08-08 20:53:00
5:08 PM,75.2,69.8,83,29.94,8.0,WNW,9.2,-,N/A,,Mostly Cloudy,300,2013-08-08 21:08:00
5:53 PM,77.0,69.1,76,29.93,8.0,West,9.2,-,N/A,,Scattered Clouds,280,2013-08-08 21:53:00
6:26 PM,77.0,69.8,78,29.94,8.0,West,6.9,-,N/A,,Mostly Cloudy,280,2013-08-08 22:26:00
6:53 PM,77.0,69.1,76,29.94,7.0,Variable,4.6,-,N/A,,Overcast,0,2013-08-08 22:53:00
7:53 PM,75.9,69.1,79,29.93,7.0,South,9.2,-,N/A,,Overcast,180,2013-08-08 23:53:00
8:17 PM,73.4,69.8,88,29.93,7.0,South,6.9,-,N/A,,Scattered Clouds,190,2013-08-09 00:17:00
8:53 PM,73.0,70.0,90,29.93,7.0,SSW,9.2,-,N/A,,Scattered Clouds,210,2013-08-09 00:53:00
9:53 PM,72.0,70.0,93,29.93,6.0,SSW,10.4,-,N/A,,Scattered Clouds,200,2013-08-09 01:53:00
10:53 PM,73.0,70.0,90,29.93,4.0,SSW,10.4,-,0.01,Rain,Rain,200,2013-08-09 02:53:00
11:02 PM,73.4,69.8,88,29.93,2.5,SSW,9.2,-,0.05,Rain,Rain,200,2013-08-09 03:02:00
11:11 PM,71.6,69.8,94,29.93,4.0,South,9.2,-,0.05,Rain,Light Rain,190,2013-08-09 03:11:00
11:53 PM,73.0,70.0,90,29.92,5.0,WNW,9.2,-,0.06,Rain,Light Rain,290,2013-08-09 03:53:00